Regional Weather Roundup
Issued by NWS

Home | Current Version | Previous Version | Text Only | Print | Product List | Glossary On
Versions: 1 2 3 4 5 6 7 8 9 10 11 12 13 14 15 16 17 18 19 20 21 22 23 24 25 26 27 28 29 30 31 32 33 34 35 36 37 38 39 40 41 42 43 44 45 46 47 48 49 50
000
ASUS44 KBMX 301010
RWRAL

ALABAMA REGIONAL WEATHER ROUNDUP
NATIONAL WEATHER SERVICE BIRMINGHAM AL
500 AM CDT SAT AUG 30 2014

NOTE: "FAIR" INDICATES FEW OR NO CLOUDS BELOW 12,000 FEET
WITH NO SIGNIFICANT WEATHER AND/OR OBSTRUCTIONS TO VISIBILITY.

THE REMARK "TC" DENOTES TEMPERATURE IN DEGREES CELSIUS.

ALZ001>011-014-016>018-020-301100-
NORTH ALABAMA

CITY           SKY/WX    TMP DP  RH WIND       PRES   REMARKS
MUSCLE SHOALS  CLOUDY    73  66  78 CALM      30.06S
HUNTSVILLE     CLOUDY    75  65  70 E6        30.07R
DECATUR        LGT RAIN  73  67  81 CALM      30.07S
HALEYVILLE     FAIR      70  67  90 CALM      30.10S
GADSDEN        MOCLDY    72  64  78 CALM      30.08S
$$

ALZ012-013-022-023-030>036-040>044-301100-
WEST CENTRAL ALABAMA

CITY           SKY/WX    TMP DP  RH WIND       PRES   REMARKS
TUSCALOOSA     CLOUDY    76  70  82 CALM      30.05S
$$

ALZ015-024>027-033>036-040>044-301100-
CENTRAL ALABAMA

CITY           SKY/WX    TMP DP  RH WIND       PRES   REMARKS
BIRMINGHAM     MOCLDY    79  71  76 CALM      30.10R
MONTGOMERY     CLOUDY    76  73  91 E3        30.07R
SHELBY CO ARPT CLOUDY    78  72  81 SE3       30.09R
MAXWELL AFB    CLOUDY    76  76  99 E2        30.07R
GREENVILLE     FAIR      75  73  93 S5        30.07R
$$

ALZ019-021-028-029-037-038-045>048-301100-
EAST CENTRAL ALABAMA

CITY           SKY/WX    TMP DP  RH WIND       PRES   REMARKS
ANNISTON       PTCLDY    73  66  78 CALM      30.10R
ALEXANDER CITY PTCLDY    76  71  85 CALM      30.11R
AUBURN         CLOUDY    72  66  83 SE5       30.15R
$$

ALZ051>064-301100-
SOUTHWEST ALABAMA

CITY           SKY/WX    TMP DP  RH WIND       PRES   REMARKS
MOBILE         CLOUDY    76  76 100 SE6       30.05R
BROOKLEY FIELD CLOUDY    82  77  84 S7        30.05R HX  90
EVERGREEN      CLOUDY    76  74  93 S3        30.07R
$$

ALZ049-050-065>069-301100-
SOUTHEAST ALABAMA

CITY           SKY/WX    TMP DP  RH WIND       PRES   REMARKS
DOTHAN         FOG       74  73  97 CALM      30.13R VSB 1/4
OZARK          PTCLDY    73  72  97 NE3       30.09R
TROY           PTCLDY    73  72  96 CALM      30.09R
EUFAULA        FAIR      77  73  88 CALM      30.07F
$$


USA.gov is the U.S. government's official web portal to all federal, state and local government web resources and services.